Stündliche Wetter Juniewicze

Heute, 2 März, Dienstag

Zeit Temperatur Niederschläge Wind Luftdruck Luftfeuchtigkeit
00:00 -1°C° 0 mm 4 m/S 759 mmHg 94%
01:00 -1°C° 0 mm 4 m/S 759 mmHg 94%
02:00 -1°C° 0 mm 5 m/S 759 mmHg 95%
03:00 -1°C° 0 mm 5 m/S 758 mmHg 95%
04:00 -1°C° 0 mm 5 m/S 758 mmHg 95%
05:00 -1°C° 0 mm 5 m/S 757 mmHg 95%
06:00 -1°C° 0 mm 5 m/S 757 mmHg 95%
07:00 -1°C° 0 mm 5 m/S 757 mmHg 94%
08:00 -1°C° 0 mm 5 m/S 757 mmHg 94%
09:00 -1°C° 0 mm 6 m/S 757 mmHg 87%
10:00 +2°C° 0 mm 6 m/S 757 mmHg 80%
11:00 +3°C° 0 mm 6 m/S 757 mmHg 73%
12:00 +4°C° 0 mm 6 m/S 757 mmHg 68%
13:00 +5°C° 0 mm 6 m/S 757 mmHg 63%
14:00 +6°C° 0 mm 7 m/S 757 mmHg 58%
15:00 +7°C° 0 mm 6 m/S 756 mmHg 59%
16:00 +7°C° 0 mm 6 m/S 756 mmHg 59%
17:00 +7°C° 0 mm 5 m/S 756 mmHg 60%
18:00 +6°C° 0 mm 5 m/S 756 mmHg 66%
19:00 +4°C° 0 mm 4 m/S 757 mmHg 72%
20:00 +3°C° 0 mm 4 m/S 757 mmHg 79%
21:00 +3°C° 0 mm 3 m/S 757 mmHg 82%
22:00 +2°C° 0 mm 3 m/S 758 mmHg 86%
23:00 +1°C° 0 mm 3 m/S 758 mmHg 90%

Morgen, 3 März, Mittwoch

Zeit Temperatur Niederschläge Wind Luftdruck Luftfeuchtigkeit
00:00 +1°C° 0 mm 3 m/S 758 mmHg 91%
01:00 +1°C° 0 mm 2 m/S 758 mmHg 92%
02:00 +1°C° 0 mm 2 m/S 759 mmHg 93%
03:00 -1°C° 0 mm 2 m/S 758 mmHg 93%
04:00 -1°C° 0 mm 2 m/S 758 mmHg 93%
05:00 +1°C° 0 mm 1 m/S 757 mmHg 93%
06:00 +1°C° 0 mm 1 m/S 757 mmHg 92%
07:00 +1°C° 0 mm 1 m/S 758 mmHg 90%
08:00 +1°C° 0 mm 1 m/S 758 mmHg 89%
09:00 +3°C° 0 mm 1 m/S 757 mmHg 80%
10:00 +4°C° 0 mm 1 m/S 757 mmHg 72%
11:00 +6°C° 0 mm 1 m/S 757 mmHg 63%
12:00 +6°C° 0 mm 2 m/S 756 mmHg 60%
13:00 +7°C° 0 mm 2 m/S 756 mmHg 56%
14:00 +8°C° 0 mm 2 m/S 756 mmHg 53%
15:00 +8°C° 0 mm 3 m/S 755 mmHg 56%
16:00 +8°C° 0 mm 3 m/S 754 mmHg 60%
17:00 +8°C° 0 mm 3 m/S 753 mmHg 63%
18:00 +5°C° 0 mm 3 m/S 753 mmHg 68%
19:00 +4°C° 0 mm 3 m/S 752 mmHg 72%
20:00 +3°C° 0 mm 3 m/S 752 mmHg 76%
21:00 +3°C° 0 mm 3 m/S 751 mmHg 77%
22:00 +2°C° 0 mm 3 m/S 751 mmHg 78%
23:00 +2°C° 0 mm 3 m/S 750 mmHg 80%

übermorgen, 4 März, Donnerstag

Zeit Temperatur Niederschläge Wind Luftdruck Luftfeuchtigkeit
00:00 +2°C° 0 mm 3 m/S 749 mmHg 81%
01:00 +1°C° 0 mm 4 m/S 749 mmHg 82%
02:00 0°C° 0 mm 4 m/S 748 mmHg 83%
03:00 0°C° 0 mm 4 m/S 747 mmHg 85%
04:00 0°C° 0 mm 5 m/S 746 mmHg 87%
05:00 0°C° 0 mm 5 m/S 746 mmHg 88%
06:00 0°C° 0 mm 5 m/S 745 mmHg 90%
07:00 0°C° 0 mm 5 m/S 745 mmHg 92%
08:00 -1°C° 0 mm 6 m/S 745 mmHg 94%
09:00 +1°C° 0 mm 6 m/S 744 mmHg 90%
10:00 +3°C° 0 mm 6 m/S 744 mmHg 86%
11:00 +4°C° 0 mm 6 m/S 744 mmHg 82%
12:00 +4°C° 0 mm 6 m/S 744 mmHg 79%
13:00 +4°C° 0 mm 6 m/S 744 mmHg 76%
14:00 +5°C° 0 mm 6 m/S 743 mmHg 72%
15:00 +4°C° 0 mm 6 m/S 743 mmHg 73%
16:00 +5°C° 0 mm 5 m/S 743 mmHg 73%
17:00 +3°C° 0 mm 5 m/S 742 mmHg 73%
18:00 +3°C° 0 mm 5 m/S 742 mmHg 76%
19:00 +3°C° 0 mm 4 m/S 742 mmHg 79%
20:00 +2°C° 0 mm 3 m/S 742 mmHg 81%
21:00 +2°C° 0 mm 3 m/S 742 mmHg 82%
22:00 +1°C° 0 mm 3 m/S 742 mmHg 84%
23:00 +2°C° 0 mm 2 m/S 742 mmHg 85%

5 März, Freitag

Zeit Temperatur Niederschläge Wind Luftdruck Luftfeuchtigkeit
00:00 +1°C° 0 mm 3 m/S 742 mmHg 88%
01:00 0°C° 0 mm 3 m/S 742 mmHg 91%
02:00 0°C° 0 mm 3 m/S 742 mmHg 94%
03:00 -1°C° 0.1 mm 3 m/S 742 mmHg 93%
04:00 -3°C° 0.1 mm 4 m/S 742 mmHg 92%
05:00 -4°C° 0.1 mm 5 m/S 742 mmHg 91%
06:00 -4°C° 0.1 mm 5 m/S 743 mmHg 84%
07:00 -4°C° 0.1 mm 5 m/S 744 mmHg 77%
08:00 -4°C° 0.1 mm 5 m/S 744 mmHg 70%
09:00 -4°C° 0 mm 5 m/S 745 mmHg 65%
10:00 -2°C° 0 mm 5 m/S 745 mmHg 60%
11:00 -2°C° 0 mm 5 m/S 745 mmHg 55%
12:00 -1°C° 0 mm 5 m/S 746 mmHg 48%
13:00 0°C° 0 mm 5 m/S 746 mmHg 41%
14:00 0°C° 0 mm 5 m/S 747 mmHg 34%
15:00 0°C° 0 mm 5 m/S 747 mmHg 36%
16:00 0°C° 0 mm 5 m/S 747 mmHg 38%
17:00 0°C° 0 mm 4 m/S 748 mmHg 40%
18:00 -1°C° 0 mm 4 m/S 748 mmHg 45%
19:00 -1°C° 0 mm 3 m/S 749 mmHg 50%
20:00 -2°C° 0 mm 2 m/S 749 mmHg 54%
21:00 -2°C° 0 mm 2 m/S 750 mmHg 56%
22:00 -2°C° 0 mm 2 m/S 750 mmHg 57%
23:00 -3°C° 0 mm 2 m/S 751 mmHg 59%

6 März, Samstag

Zeit Temperatur Niederschläge Wind Luftdruck Luftfeuchtigkeit
00:00 -3°C° 0 mm 2 m/S 751 mmHg 64%
01:00 -3°C° 0 mm 2 m/S 751 mmHg 69%
02:00 -3°C° 0 mm 2 m/S 751 mmHg 74%
03:00 -3°C° 0.2 mm 2 m/S 752 mmHg 71%
04:00 -4°C° 0.2 mm 3 m/S 752 mmHg 69%
05:00 -4°C° 0.2 mm 3 m/S 752 mmHg 66%
06:00 -4°C° 0 mm 4 m/S 753 mmHg 69%
07:00 -4°C° 0 mm 4 m/S 753 mmHg 72%
08:00 -5°C° 0 mm 4 m/S 754 mmHg 75%
09:00 -4°C° 0 mm 4 m/S 754 mmHg 66%
10:00 -4°C° 0 mm 5 m/S 754 mmHg 57%
11:00 -2°C° 0 mm 5 m/S 755 mmHg 48%
12:00 -2°C° 0 mm 5 m/S 755 mmHg 45%
13:00 -1°C° 0 mm 5 m/S 755 mmHg 42%
14:00 -2°C° 0 mm 6 m/S 755 mmHg 39%
15:00 -1°C° 0 mm 5 m/S 755 mmHg 41%
16:00 -1°C° 0 mm 5 m/S 755 mmHg 43%
17:00 -1°C° 0 mm 5 m/S 755 mmHg 46%
18:00 -2°C° 0 mm 5 m/S 755 mmHg 49%
19:00 -3°C° 0 mm 4 m/S 755 mmHg 53%
20:00 -4°C° 0 mm 4 m/S 755 mmHg 57%
21:00 -4°C° 0 mm 4 m/S 755 mmHg 57%
22:00 -4°C° 0 mm 5 m/S 755 mmHg 58%
23:00 -4°C° 0 mm 6 m/S 755 mmHg 59%

7 März, Sonntag

Zeit Temperatur Niederschläge Wind Luftdruck Luftfeuchtigkeit
00:00 -4°C° 0 mm 6 m/S 754 mmHg 59%
01:00 -4°C° 0 mm 6 m/S 754 mmHg 58%
02:00 -4°C° 0 mm 7 m/S 754 mmHg 58%
03:00 -4°C° 0 mm 7 m/S 753 mmHg 61%
04:00 -4°C° 0 mm 7 m/S 753 mmHg 64%
05:00 -4°C° 0 mm 7 m/S 752 mmHg 67%
06:00 -4°C° 0 mm 7 m/S 752 mmHg 70%
07:00 -4°C° 0 mm 7 m/S 752 mmHg 73%
08:00 -5°C° 0 mm 8 m/S 752 mmHg 77%
09:00 -4°C° 0 mm 8 m/S 752 mmHg 76%
10:00 -2°C° 0 mm 8 m/S 751 mmHg 76%
11:00 -3°C° 0 mm 9 m/S 751 mmHg 76%
12:00 -1°C° 0 mm 9 m/S 751 mmHg 75%
13:00 -1°C° 0 mm 9 m/S 751 mmHg 74%
14:00 -1°C° 0 mm 9 m/S 750 mmHg 73%
15:00 -3°C° 0 mm 9 m/S 750 mmHg 76%
16:00 -3°C° 0 mm 9 m/S 749 mmHg 79%
17:00 -4°C° 0 mm 9 m/S 749 mmHg 82%
18:00 -4°C° 0 mm 8 m/S 748 mmHg 81%
19:00 -4°C° 0 mm 8 m/S 748 mmHg 80%
20:00 -4°C° 0 mm 8 m/S 747 mmHg 80%
21:00 -4°C° 0 mm 8 m/S 747 mmHg 82%
22:00 -4°C° 0 mm 8 m/S 746 mmHg 85%
23:00 -4°C° 0 mm 8 m/S 746 mmHg 88%
Mehr zeigen

Wir brauchen deine Erlaubnis

Meteoprog und unser Service Anbieter werden persönliche Daten aufbewahren, so wie Cookies, Geräte Bezeichnung oder ähnliche Technologien von deinem Gerät und Prozess, so wie Persönliche Daten Inhalte und Werbungen, genauso wie social Media und den Verkehr zu analysieren.

  • Aufbewahrung und/oder Zugang zu deiner Geräte Informationen.

    Cookies, Geräte Bezeichnung oder andere Informationen, können aufbewahrt oder Zugang zu deinem Gerät erhalten, für den Grund, der oben angegeben wird.

  • Personalisierte Werbung und Inhalte, Messungen, Einblick in das Publikum und Produkt Entwicklung.

    Werbungen und Inhalte können personalisiert werden, basierend auf ein Profil. Mehr Daten können besser personalisierte Werbungen und Inhalte hinzufügen. Werbung und Inhalte können gezeigt und gemessen werden. Einblicke über das Publikum, welche die Werbung gesehen haben und den Inhalt, können abgeleitet werden. So wie Daten können genutzt werden, um es zu verbessern oder die Benutzer Erfahrung zu verbessern das System und die Software.

Wenn du “Ich stimme zu” klickst, erlaubst du uns, die Cookies zu benutzen die Geräte Bezeichnung, den Web oder ähnliche Technologien zu benutzen. Deine Settings, können in deinem Gerät bei deinem Browser geändert werden.

Für den bestimmten Zweck, berechtigten Interessen beruhen darauf, mehr als auf den Inhalt. Du kannst mehr darüber in unseren Privaten und Cookie Politik lesen.